Time,TemperatureF,DewpointF,PressureIn,WindDirection,WindDirectionDegrees,WindSpeedMPH,WindSpeedGustMPH,Humidity,HourlyPrecipIn,Conditions,Clouds,dailyrainin,SoftwareType,DateUTC
2013-03-01 00:15:00,32.0,28.8,30.07,NNW,340,3.0,3.0,88,0.01,OVC,OVC,0.01,WeatherDisplay:10.37,2013-03-01 06:15:00,
2013-03-01 00:45:00,30.9,27.8,30.08,NNE,30,7.0,7.0,88,0.00,-SN,-SN,0.01,WeatherDisplay:10.37,2013-03-01 06:45:00,
2013-03-01 01:15:00,30.9,26.9,30.08,NE,40,7.0,7.0,85,0.01,-SN,-SN,0.02,WeatherDisplay:10.37,2013-03-01 07:15:00,
2013-03-01 01:45:00,30.9,26.9,30.07,NE,50,8.0,8.0,85,0.00,-SN,-SN,0.02,WeatherDisplay:10.37,2013-03-01 07:45:00,
2013-03-01 02:15:00,30.0,24.0,30.07,NNE,30,9.0,9.0,78,0.00,OVC,OVC,0.02,WeatherDisplay:10.37,2013-03-01 08:15:00,
2013-03-01 02:45:00,30.0,24.0,30.07,NNE,30,9.0,9.0,78,0.00,OVC,OVC,0.02,WeatherDisplay:10.37,2013-03-01 08:45:00,
2013-03-01 03:15:00,28.9,22.9,30.07,NNE,20,6.0,9.0,78,0.00,OVC,OVC,0.02,WeatherDisplay:10.37,2013-03-01 09:15:00,
2013-03-01 03:45:00,28.9,22.9,30.07,NE,40,8.0,8.0,78,0.00,-SN,-SN,0.02,WeatherDisplay:10.37,2013-03-01 09:45:00,
2013-03-01 04:15:00,28.9,22.9,30.07,NE,40,8.0,8.0,78,0.00,-SN,-SN,0.02,WeatherDisplay:10.37,2013-03-01 10:15:00,
2013-03-01 04:45:00,28.0,21.8,30.07,NNE,30,7.0,7.0,77,0.00,-SN,-SN,0.02,WeatherDisplay:10.37,2013-03-01 10:45:00,
2013-03-01 05:15:00,27.0,20.7,30.08,North,10,6.0,7.0,77,0.00,OVC,OVC,0.02,WeatherDisplay:10.37,2013-03-01 11:15:00,
2013-03-01 05:45:00,27.0,20.7,30.08,North,10,6.0,6.0,77,0.00,OVC,OVC,0.02,WeatherDisplay:10.37,2013-03-01 11:45:00,
2013-03-01 06:15:00,27.0,19.8,30.09,North,10,7.0,7.0,74,0.00,OVC,OVC,0.02,WeatherDisplay:10.37,2013-03-01 12:15:00,
2013-03-01 06:45:00,27.0,19.8,30.09,North,10,7.0,7.0,74,0.00,OVC,OVC,0.02,WeatherDisplay:10.37,2013-03-01 12:45:00,
2013-03-01 07:15:00,26.1,18.9,30.11,North,10,7.0,7.0,74,0.00,OVC,OVC,0.02,WeatherDisplay:10.37,2013-03-01 13:15:00,
2013-03-01 07:45:00,26.1,18.9,30.11,North,10,7.0,7.0,74,0.00,OVC,OVC,0.02,WeatherDisplay:10.37,2013-03-01 13:45:00,
2013-03-01 08:15:00,26.1,19.8,30.13,North,10,6.0,7.0,77,0.00,OVC,OVC,0.02,WeatherDisplay:10.37,2013-03-01 14:15:00,
2013-03-01 08:45:00,26.1,19.8,30.13,North,10,6.0,6.0,77,0.00,OVC,OVC,0.02,WeatherDisplay:10.37,2013-03-01 14:45:00,
2013-03-01 09:15:00,27.0,20.7,30.13,North,10,9.0,9.0,77,0.00,OVC,OVC,0.02,WeatherDisplay:10.37,2013-03-01 15:15:00,
2013-03-01 09:45:00,27.0,20.7,30.13,North,10,9.0,9.0,77,0.00,OVC,OVC,0.02,WeatherDisplay:10.37,2013-03-01 15:45:00,
2013-03-01 10:15:00,27.0,19.8,30.14,North,10,8.0,18.0,74,0.00,OVC,OVC,0.02,WeatherDisplay:10.37,2013-03-01 16:15:00,
2013-03-01 10:45:00,27.0,19.8,30.14,North,10,8.0,18.0,74,0.00,OVC,OVC,0.02,WeatherDisplay:10.37,2013-03-01 16:45:00,
2013-03-01 11:15:00,28.0,20.8,30.14,North,350,8.0,9.0,74,0.00,-SN,-SN,0.02,WeatherDisplay:10.37,2013-03-01 17:15:00,
2013-03-01 11:45:00,28.0,20.8,30.14,North,350,8.0,8.0,74,0.00,-SN,-SN,0.02,WeatherDisplay:10.37,2013-03-01 17:45:00,
2013-03-01 12:15:00,28.9,20.7,30.14,North,10,8.0,9.0,71,0.00,OVC,OVC,0.02,WeatherDisplay:10.37,2013-03-01 18:15:00,
2013-03-01 12:45:00,28.9,20.7,30.14,NNE,20,9.0,9.0,71,0.00,OVC,OVC,0.02,WeatherDisplay:10.37,2013-03-01 18:45:00,
2013-03-01 13:15:00,30.0,21.8,30.13,North,10,8.0,9.0,71,0.00,OVC,OVC,0.02,WeatherDisplay:10.37,2013-03-01 19:15:00,
2013-03-01 13:45:00,30.0,21.8,30.13,North,10,8.0,8.0,71,0.00,OVC,OVC,0.02,WeatherDisplay:10.37,2013-03-01 19:45:00,
2013-03-01 14:15:00,30.0,20.7,30.13,North,360,10.0,10.0,68,0.00,OVC,OVC,0.02,WeatherDisplay:10.37,2013-03-01 20:15:00,
2013-03-01 14:45:00,30.0,20.7,30.13,North,360,10.0,10.0,68,0.00,OVC,OVC,0.02,WeatherDisplay:10.37,2013-03-01 20:45:00,
2013-03-01 15:15:00,30.0,20.7,30.14,North,360,9.0,10.0,68,0.00,OVC,OVC,0.02,WeatherDisplay:10.37,2013-03-01 21:15:00,
2013-03-01 15:45:00,30.0,20.7,30.14,North,360,9.0,9.0,68,0.00,OVC,OVC,0.02,WeatherDisplay:10.37,2013-03-01 21:45:00,
2013-03-01 16:15:00,28.0,20.8,30.15,North,350,9.0,9.0,74,0.00,-SN,-SN,0.02,WeatherDisplay:10.37,2013-03-01 22:15:00,
2013-03-01 16:45:00,28.0,20.8,30.15,North,350,9.0,9.0,74,0.00,-SN,-SN,0.02,WeatherDisplay:10.37,2013-03-01 22:45:00,
2013-03-01 17:15:00,28.0,21.8,30.17,North,350,9.0,9.0,77,0.00,-SN,-SN,0.02,WeatherDisplay:10.37,2013-03-01 23:15:00,
2013-03-01 17:45:00,28.0,21.8,30.17,North,350,9.0,9.0,77,0.00,-SN,-SN,0.02,WeatherDisplay:10.37,2013-03-01 23:45:00,
2013-03-01 18:15:00,27.0,20.7,30.18,North,10,10.0,10.0,77,0.00,-SN,-SN,0.02,WeatherDisplay:10.37,2013-03-02 00:15:00,
2013-03-01 18:45:00,26.1,20.7,30.19,North,10,7.0,10.0,80,0.00,-SN,-SN,0.02,WeatherDisplay:10.37,2013-03-02 00:45:00,
2013-03-01 19:15:00,26.1,20.7,30.20,North,10,10.0,20.0,80,0.00,-SN,-SN,0.02,WeatherDisplay:10.37,2013-03-02 01:15:00,
2013-03-01 19:45:00,26.1,20.7,30.20,North,10,10.0,20.0,80,0.00,-SN,-SN,0.02,WeatherDisplay:10.37,2013-03-02 01:45:00,
2013-03-01 20:15:00,25.0,19.7,30.21,North,10,9.0,20.0,80,0.00,-SN,-SN,0.02,WeatherDisplay:10.37,2013-03-02 02:15:00,
2013-03-01 20:45:00,25.0,19.7,30.21,North,10,9.0,9.0,80,0.00,-SN,-SN,0.02,WeatherDisplay:10.37,2013-03-02 02:45:00,
2013-03-01 21:15:00,25.0,18.8,30.22,North,360,9.0,9.0,77,0.00,OVC,OVC,0.02,WeatherDisplay:10.37,2013-03-02 03:15:00,
2013-03-01 21:45:00,25.0,18.8,30.22,North,360,9.0,9.0,77,0.00,OVC,OVC,0.02,WeatherDisplay:10.37,2013-03-02 03:45:00,
2013-03-01 22:15:00,25.0,18.8,30.22,North,360,8.0,9.0,77,0.00,OVC,OVC,0.02,WeatherDisplay:10.37,2013-03-02 04:15:00,
2013-03-01 22:45:00,25.0,18.8,30.22,North,360,8.0,8.0,77,0.00,OVC,OVC,0.02,WeatherDisplay:10.37,2013-03-02 04:45:00,
2013-03-01 23:15:00,25.0,17.9,30.21,North,360,7.0,8.0,74,0.00,OVC,OVC,0.02,WeatherDisplay:10.37,2013-03-02 05:15:00,
2013-03-01 23:45:00,25.0,17.9,30.21,North,360,7.0,7.0,74,0.00,OVC,OVC,0.02,WeatherDisplay:10.37,2013-03-02 05:45:00,